Regional Weather Roundup
Issued by NWS Goodland, KS

Home | Current Version | Previous Version | Graphics & Text | Print | Product List | Glossary On
Versions: 1 2 3 4 5 6 7 8 9 10 11 12 13 14 15 16 17 18 19 20 21 22 23 24 25 26 27 28 29 30 31 32 33 34 35 36 37 38 39 40 41 42 43 44 45 46 47 48 49 50
000
ASUS43 KGLD 230008
RWRGLD

GOODLAND FORECAST AREA HOURLY WEATHER ROUNDUP
NATIONAL WEATHER SERVICE GOODLAND KS
600 PM MDT WED OCT 22 2014

...OFFICIAL OBSERVATIONS...

CITY           SKY/WX    TMP DP  RH WIND       PRES   REMARKS
GOODLAND KS    CLEAR     60  47  61 E6        30.05R
HILL CITY KS   CLOUDY    70  57  63 S7        30.02R THUNDER
IMPERIAL NEB   CLEAR     61  38  42 N7        30.04R
MCCOOK NEB     CLEAR     64  50  60 E5        30.02R
AKRON CO       CLEAR     58  37  45 E8        30.08R
BURLINGTON CO  CLEAR     62  39  42 NE6       30.07R
LIMON CO       MOCLDY    54  46  74 SE7       30.11S
$$

...UNOFFICIAL OBSERVATIONS...

CITY           SKY/WX    TMP DP  RH WIND       PRES   REMARKS
COLBY KS       CLEAR     63  50  63 NE7       30.05R
GOVE KS          N/A     71  32  23 MISG        N/A
NORTON KS      CLEAR     61  48  63 N6        30.01R
SHARON SPRINGS   N/A     66  48  52 NE7         N/A
TRIBUNE KS     CLEAR     64  54  68 N7        30.06R
TRENTON NEB      N/A     65  32  29 E5          N/A
KIT CARSON CO    N/A     63  44  49 CALM        N/A
YUMA CO          N/A     60  36  41 CALM        N/A
$$



USA.gov is the U.S. government's official web portal to all federal, state and local government web resources and services.